CW2157 Weather Reports


time (UTC)temp
F
wind
direction
speed
knots
gust
knots
rain 1hr
in
rain 24hr
in
rain mn
in
humidity
%
barometer
mb
20260504204704 75 202 8.7 13.0 0.00 0.00 0.00 41 1009.3
20260504204204 75 204 7.8 13.9 0.00 0.00 0.00 39 1009.3
20260504203704 75 211 8.7 17.4 0.00 0.00 0.00 39 1009.3
20260504203204 75 187 10.4 17.4 0.00 0.00 0.00 38 1009.3
20260504202704 74 194 8.7 14.8 0.00 0.00 0.00 40 1009.4
20260504202204 74 202 8.7 18.2 0.00 0.00 0.00 37 1009.5
20260504201704 74 209 8.7 17.4 0.00 0.00 0.00 42 1009.6
20260504201204 74 196 9.6 15.6 0.00 0.00 0.00 40 1009.6
20260504200704 74 193 8.7 17.4 0.00 0.00 0.00 39 1009.6
20260504200204 74 205 8.7 12.2 0.00 0.00 0.00 41 1009.7
20260504195204 74 205 8.7 17.4 0.00 0.00 0.00 38 1009.9
20260504194704 74 210 7.8 11.3 0.00 0.00 0.00 38 1009.9
20260504194204 74 209 7.8 13.9 0.00 0.00 0.00 40 1010.0
20260504193704 74 213 9.6 13.9 0.00 0.00 0.00 39 1010.2
20260504193204 74 204 7.8 13.9 0.00 0.00 0.00 39 1010.2
20260504192704 74 195 10.4 14.8 0.00 0.00 0.00 40 1010.3
20260504192204 73 202 7.8 10.4 0.00 0.00 0.00 41 1010.3
20260504191704 73 187 7.8 13.0 0.00 0.00 0.00 40 1010.4
20260504191204 73 192 6.1 11.3 0.00 0.00 0.00 42 1010.4
20260504190204 73 204 7.8 11.3 0.00 0.00 0.00 41 1010.5
20260504185704 73 194 6.1 13.9 0.00 0.00 0.00 39 1010.6
20260504185204 73 200 8.7 14.8 0.00 0.00 0.00 37 1010.7
20260504184704 73 201 10.4 14.8 0.00 0.00 0.00 40 1010.8
20260504184204 72 177 8.7 14.8 0.00 0.00 0.00 36 1010.9
20260504183704 72 202 7.8 11.3 0.00 0.00 0.00 41 1011.0
20260504183204 72 189 9.6 15.6 0.00 0.00 0.00 37 1011.1
20260504182204 72 194 9.6 13.9 0.00 0.00 0.00 37 1011.2
20260504181204 72 195 7.8 13.9 0.00 0.00 0.00 39 1011.2
20260504180704 72 206 8.7 12.2 0.00 0.00 0.00 39 1011.3
20260504180204 72 195 8.7 12.2 0.00 0.00 0.00 40 1011.4
20260504175705 72 207 7.8 11.3 0.00 0.00 0.00 39 1011.5
20260504175204 72 199 7.8 11.3 0.00 0.00 0.00 41 1011.6
20260504174704 71 204 7.8 10.4 0.00 0.00 0.00 43 1011.6
20260504174204 71 202 7.8 11.3 0.00 0.00 0.00 40 1011.7
20260504173704 71 208 7.0 13.0 0.00 0.00 0.00 40 1011.7
20260504173204 71 210 7.0 12.2 0.00 0.00 0.00 39 1011.7
20260504172704 71 209 8.7 13.0 0.00 0.00 0.00 39 1011.7
20260504171704 70 210 7.0 10.4 0.00 0.00 0.00 40 1011.8
20260504171204 70 179 7.0 10.4 0.00 0.00 0.00 41 1011.7
20260504170704 70 175 5.2 8.7 0.00 0.00 0.00 43 1011.8
20260504170205 70 203 6.1 10.4 0.00 0.00 0.00 43 1011.8
20260504160204 68 160 5.2 10.4 0.00 0.00 0.00 44 1012.6
20260504150204 68 199 7.8 10.4 0.00 0.00 0.00 49 1013.1
20260504141204 64 202 7.8 10.4 0.00 0.00 0.00 53 1013.2
20260504140704 64 202 6.1 7.8 0.00 0.00 0.00 51 1013.2
20260504120203 59 207 8.7 12.2 0.00 0.00 0.00 63 1013.9
20260504110704 55 210 7.8 11.3 0.00 0.00 0.00 69 1014.2
20260504110204 55 193 8.7 11.3 0.00 0.00 0.00 69 1014.4
20260504100203 56 218 9.6 12.2 0.00 0.00 0.00 68 1014.4
20260504081705 57 194 9.6 17.4 0.00 0.00 0.00 68 1014.2
20260504081206 57 197 9.6 17.4 0.00 0.00 0.00 70 1014.2
20260504080706 57 199 7.0 13.0 0.00 0.00 0.00 69 1014.2
20260504080205 57 198 10.4 14.8 0.00 0.00 0.00 70 1014.2
20260504070206 56 213 9.6 13.0 0.00 0.00 0.00 72 1014.5
20260504060206 55 195 7.8 12.2 0.00 0.00 0.00 71 1014.6
20260504050706 51 198 7.8 11.3 0.00 0.00 0.00 76 1014.4
20260504050206 51 198 6.1 10.4 0.00 0.00 0.00 75 1014.4
20260504045205 51 203 7.8 10.4 0.00 0.00 0.00 73 1014.5
20260504044706 51 196 8.7 12.2 0.00 0.00 0.00 72 1014.4
20260504044205 50 206 7.8 10.4 0.00 0.00 0.00 73 1014.5
20260504043705 50 204 7.8 11.3 0.00 0.00 0.00 74 1014.5
20260504043205 50 209 7.8 10.4 0.00 0.00 0.00 74 1014.5
20260504042705 49 202 7.8 10.4 0.00 0.00 0.00 75 1014.4
20260504041705 49 205 6.1 10.4 0.00 0.00 0.00 76 1014.3
20260504041205 49 212 6.1 7.8 0.00 0.00 0.00 77 1014.4
20260504040205 48 212 7.0 8.7 0.00 0.00 0.00 78 1014.4
20260504035705 48 214 6.1 7.8 0.00 0.00 0.00 78 1014.3
20260504035205 48 206 6.1 7.8 0.00 0.00 0.00 79 1014.2
20260504034706 48 212 7.8 10.4 0.00 0.00 0.00 80 1014.3
20260504034205 48 205 7.8 10.4 0.00 0.00 0.00 79 1014.2
20260504033705 47 202 6.1 8.7 0.00 0.00 0.00 78 1014.2
20260504033205 47 199 4.3 6.1 0.00 0.00 0.00 77 1014.2
20260504031705 47 122 0.9 1.7 0.00 0.00 0.00 77 1014.0
20260504031205 47 25 0.0 0.9 0.00 0.00 0.00 76 1014.0
20260504030705 47 25 0.0 0.9 0.00 0.00 0.00 76 1014.1
20260504025705 47 25 0.0 0.9 0.00 0.00 0.00 76 1014.0
20260504025205 48 25 0.0 0.0 0.00 0.00 0.00 76 1014.0
20260504024705 48 25 0.9 1.7 0.00 0.00 0.00 76 1014.0
20260504024205 48 25 0.9 1.7 0.00 0.00 0.00 75 1014.0
20260504022705 48 15 0.0 0.0 0.00 0.00 0.00 73 1014.0
20260504022205 48 15 0.0 0.0 0.00 0.00 0.00 72 1014.0
20260504021705 48 15 0.0 0.9 0.00 0.00 0.00 72 1013.9
20260504021205 48 15 0.0 0.9 0.00 0.00 0.00 72 1013.9
20260504020705 49 15 0.0 0.9 0.00 0.00 0.00 72 1013.9
20260504020205 49 15 0.0 0.0 0.00 0.00 0.00 72 1013.9
20260504015705 49 15 0.0 0.0 0.00 0.00 0.00 72 1014.0
20260504015205 49 15 0.0 0.0 0.00 0.00 0.00 72 1014.0
20260504014705 50 15 0.0 0.0 0.00 0.00 0.00 71 1013.9
20260504013205 50 15 0.0 0.9 0.00 0.00 0.00 67 1013.8
20260504012705 51 331 0.0 0.0 0.00 0.00 0.00 67 1013.7
20260504012206 51 321 0.0 0.9 0.00 0.00 0.00 68 1013.6
20260504011705 51 321 0.0 0.0 0.00 0.00 0.00 67 1013.5
20260504010205 52 291 0.0 0.9 0.00 0.00 0.00 64 1013.6
20260504005705 52 290 0.0 0.0 0.00 0.00 0.00 64 1013.6
20260504004206 54 290 0.0 0.0 0.00 0.00 0.00 59 1013.4
20260504003706 54 290 0.0 0.0 0.00 0.00 0.00 55 1013.3
20260504003206 54 290 0.0 0.0 0.00 0.00 0.00 54 1013.3
20260504002706 54 290 0.0 0.0 0.00 0.00 0.00 55 1013.2
20260504002205 55 290 0.0 0.0 0.00 0.00 0.00 54 1013.2
20260504001205 55 290 0.0 0.9 0.00 0.00 0.00 49 1013.1
20260504000205 56 261 0.0 0.0 0.00 0.00 0.00 48 1013.1
20260503235705 56 261 0.0 0.0 0.00 0.00 0.00 46 1012.9
20260503235205 57 261 0.0 0.9 0.00 0.00 0.00 45 1012.9
20260503234205 57 261 0.0 1.7 0.00 0.00 0.00 43 1012.7
20260503233705 57 260 0.0 1.7 0.00 0.00 0.00 43 1012.7
20260503233205 58 258 0.0 2.6 0.00 0.00 0.00 42 1012.7
20260503232705 58 231 0.9 1.7 0.00 0.00 0.00 41 1012.8
20260503232205 58 273 0.9 2.6 0.00 0.00 0.00 42 1012.7
20260503231705 58 254 0.9 2.6 0.00 0.00 0.00 40 1012.7
20260503231205 58 227 1.7 4.3 0.00 0.00 0.00 40 1012.7
20260503230705 59 310 0.0 1.7 0.00 0.00 0.00 41 1012.7
20260503230205 59 277 0.9 6.1 0.00 0.00 0.00 40 1012.8
20260503225205 59 281 1.7 2.6 0.00 0.00 0.00 42 1012.7
20260503224705 59 310 0.9 2.6 0.00 0.00 0.00 40 1012.7
20260503224205 59 231 1.7 5.2 0.00 0.00 0.00 40 1012.7
20260503223705 59 269 0.9 5.2 0.00 0.00 0.00 39 1012.7
20260503223205 59 282 1.7 5.2 0.00 0.00 0.00 39 1012.7
20260503222705 59 295 0.9 2.6 0.00 0.00 0.00 39 1012.6
20260503222204 60 242 0.9 6.1 0.00 0.00 0.00 39 1012.7
20260503221705 60 247 1.7 2.6 0.00 0.00 0.00 37 1012.7
20260503221205 60 275 1.7 7.0 0.00 0.00 0.00 38 1012.8
20260503220705 60 281 2.6 8.7 0.00 0.00 0.00 38 1012.8
20260503220204 60 274 1.7 7.8 0.00 0.00 0.00 38 1012.9
20260503215706 61 256 1.7 7.0 0.00 0.00 0.00 37 1012.9
20260503215205 61 248 2.6 10.4 0.00 0.00 0.00 37 1012.8
20260503214705 61 229 2.6 7.0 0.00 0.00 0.00 35 1012.7
20260503214205 62 315 2.6 7.0 0.00 0.00 0.00 36 1012.7
20260503213205 63 266 4.3 11.3 0.00 0.00 0.00 34 1012.8
20260503212705 63 288 2.6 7.0 0.00 0.00 0.00 36 1012.8
20260503211705 63 219 5.2 10.4 0.00 0.00 0.00 34 1012.8
20260503211205 63 242 5.2 14.8 0.00 0.00 0.00 38 1012.7
20260503210205 63 251 3.5 12.2 0.00 0.00 0.00 35 1012.9
20260503205704 63 245 4.3 8.7 0.00 0.00 0.00 35 1012.8
20260503205205 63 237 1.7 4.3 0.00 0.00 0.00 41 1012.9